Tracking 18917 objects as of 16-Jan-2018
HD Live streaming from Space Station
objects crossing your sky now

IRIDIUM 33 DEB

Track IRIDIUM 33 DEB now!
10-day predictions


NORAD ID: 33869
Int'l Code: 1997-051AN
Perigee: 715.9 km
Apogee: 816.6 km
Inclination: 86.4 °
Period: 100.0 minutes
Semi major axis: 7137 km
RCS: 0.08 m2 (small)
Launch date: September 14, 1997
Source: United States (US)
Launch site: TYURATAM MISSILE AND SPACE COMPLEX (TTMTR)

Note: This is SATELLITE DEBRIS
aabbcc
Your satellite tracking list
Your tracking list is empty




NASA's NSSDC Master Catalog

Two Line Element Set (TLE):
1 33869U 97051AN  18015.04654713  .00002539  00000-0  78011-3 0  9995
2 33869  86.3640 210.7685 0070511  31.1814 329.3538 14.39821072464126
Source of the keplerian elements: AFSPC